Year,Month,Day,Hour,Minute,Value (Times are PST for temperature in C)
2016,03,29,00,00,10.40
2016,03,29,00,01,10.40
2016,03,29,00,02,10.40
2016,03,29,00,03,10.40
2016,03,29,00,04,10.40
2016,03,29,00,05,10.30
2016,03,29,00,06,10.30
2016,03,29,00,07,10.30
2016,03,29,00,08,10.30
2016,03,29,00,09,10.30
2016,03,29,00,10,10.30
2016,03,29,00,11,10.30
2016,03,29,00,12,10.30
2016,03,29,00,13,10.30
2016,03,29,00,14,10.30
2016,03,29,00,15,10.20
2016,03,29,00,16,10.30
2016,03,29,00,17,10.20
2016,03,29,00,18,10.20
2016,03,29,00,19,10.20
2016,03,29,00,20,10.20
2016,03,29,00,21,10.20
2016,03,29,00,22,10.20
2016,03,29,00,23,10.20
2016,03,29,00,24,10.30
2016,03,29,00,25,10.30
2016,03,29,00,26,10.30
2016,03,29,00,27,10.30
2016,03,29,00,28,10.30
2016,03,29,00,29,10.20
2016,03,29,00,30,10.20
2016,03,29,00,31,10.20
2016,03,29,00,32,10.20
2016,03,29,00,33,10.20
2016,03,29,00,34,10.20
2016,03,29,00,35,10.20
2016,03,29,00,36,10.20
2016,03,29,00,37,10.20
2016,03,29,00,38,10.20
2016,03,29,00,39,10.20
2016,03,29,00,40,10.20
2016,03,29,00,41,10.20
2016,03,29,00,42,10.20
2016,03,29,00,43,10.20
2016,03,29,00,44,10.20
2016,03,29,00,45,10.20
2016,03,29,00,46,10.20
2016,03,29,00,47,10.20
2016,03,29,00,48,10.10
2016,03,29,00,49,10.10
2016,03,29,00,50,10.10
2016,03,29,00,51,10.10
2016,03,29,00,52,10.20
2016,03,29,00,53,10.20
2016,03,29,00,54,10.20
2016,03,29,00,55,10.20
2016,03,29,00,56,10.20
2016,03,29,00,57,10.10
2016,03,29,00,58,10.10
2016,03,29,00,59,10.10
2016,03,29,01,00,10.10
2016,03,29,01,01,10.10
2016,03,29,01,02,10.20
2016,03,29,01,03,10.10
2016,03,29,01,04,10.10
2016,03,29,01,05,10.10
2016,03,29,01,06,10.10
2016,03,29,01,07,10.10
2016,03,29,01,08,10.10
2016,03,29,01,09,10.10
2016,03,29,01,10,10.10
2016,03,29,01,11,10.10
2016,03,29,01,12,10.10
2016,03,29,01,13,10.00
2016,03,29,01,14,10.00
2016,03,29,01,15,10.00
2016,03,29,01,16,10.00
2016,03,29,01,17,10.00
2016,03,29,01,18,10.00
2016,03,29,01,19,10.00
2016,03,29,01,20,9.90
2016,03,29,01,21,9.90
2016,03,29,01,22,9.90
2016,03,29,01,23,9.90
2016,03,29,01,24,9.90
2016,03,29,01,25,9.90
2016,03,29,01,26,9.90
2016,03,29,01,27,9.80
2016,03,29,01,28,9.80
2016,03,29,01,29,9.80
2016,03,29,01,30,9.80
2016,03,29,01,31,9.80
2016,03,29,01,32,9.80
2016,03,29,01,33,9.80
2016,03,29,01,34,9.80
2016,03,29,01,35,9.80
2016,03,29,01,36,9.80
2016,03,29,01,37,9.80
2016,03,29,01,38,9.80
2016,03,29,01,39,9.80
2016,03,29,01,40,9.80
2016,03,29,01,41,9.80
2016,03,29,01,42,9.80
2016,03,29,01,43,9.80
2016,03,29,01,44,9.80
2016,03,29,01,45,9.80
2016,03,29,01,46,9.80
2016,03,29,01,47,9.90
2016,03,29,01,48,9.90
2016,03,29,01,49,9.90
2016,03,29,01,50,9.90
2016,03,29,01,51,9.90
2016,03,29,01,52,9.90
2016,03,29,01,53,9.90
2016,03,29,01,54,9.90
2016,03,29,01,55,9.90
2016,03,29,01,56,9.90
2016,03,29,01,57,9.90
2016,03,29,01,58,9.90
2016,03,29,01,59,9.90
2016,03,29,02,00,9.90
2016,03,29,02,01,9.90
2016,03,29,02,02,9.90
2016,03,29,02,03,9.90
2016,03,29,02,04,9.90
2016,03,29,02,05,9.90
2016,03,29,02,06,9.90
2016,03,29,02,07,10.00
2016,03,29,02,08,10.00
2016,03,29,02,09,9.90
2016,03,29,02,10,9.90
2016,03,29,02,11,9.90
2016,03,29,02,12,9.90
2016,03,29,02,13,9.90
2016,03,29,02,14,9.80
2016,03,29,02,15,9.80
2016,03,29,02,16,9.80
2016,03,29,02,17,9.80
2016,03,29,02,18,9.80
2016,03,29,02,19,9.70
2016,03,29,02,20,9.70
2016,03,29,02,21,9.70
2016,03,29,02,22,9.70
2016,03,29,02,23,9.60
2016,03,29,02,24,9.60
2016,03,29,02,25,9.60
2016,03,29,02,26,9.60
2016,03,29,02,27,9.50
2016,03,29,02,28,9.50
2016,03,29,02,29,9.50
2016,03,29,02,30,9.40
2016,03,29,02,31,9.40
2016,03,29,02,32,9.40
2016,03,29,02,33,9.40
2016,03,29,02,34,9.40
2016,03,29,02,35,9.40
2016,03,29,02,36,9.40
2016,03,29,02,37,9.40
2016,03,29,02,38,9.40
2016,03,29,02,39,9.40
2016,03,29,02,40,9.40
2016,03,29,02,41,9.40
2016,03,29,02,42,9.40
2016,03,29,02,43,9.40
2016,03,29,02,44,9.40
2016,03,29,02,45,9.40
2016,03,29,02,46,9.40
2016,03,29,02,47,9.40
2016,03,29,02,48,9.40
2016,03,29,02,49,9.50
2016,03,29,02,50,9.40
2016,03,29,02,51,9.50
2016,03,29,02,52,9.50
2016,03,29,02,53,9.50
2016,03,29,02,54,9.50
2016,03,29,02,55,9.50
2016,03,29,02,56,9.50
2016,03,29,02,57,9.50
2016,03,29,02,58,9.40
2016,03,29,02,59,9.40
2016,03,29,03,00,9.40
2016,03,29,03,01,9.40
2016,03,29,03,02,9.40
2016,03,29,03,03,9.40
2016,03,29,03,04,9.40
2016,03,29,03,05,9.40
2016,03,29,03,06,9.30
2016,03,29,03,07,9.30
2016,03,29,03,08,9.30
2016,03,29,03,09,9.30
2016,03,29,03,10,9.30
2016,03,29,03,11,9.30
2016,03,29,03,12,9.30
2016,03,29,03,13,9.30
2016,03,29,03,14,9.30
2016,03,29,03,15,9.30
2016,03,29,03,16,9.30
2016,03,29,03,17,9.30
2016,03,29,03,18,9.30
2016,03,29,03,19,9.30
2016,03,29,03,20,9.30
2016,03,29,03,21,9.30
2016,03,29,03,22,9.30
2016,03,29,03,23,9.30
2016,03,29,03,24,9.30
2016,03,29,03,25,9.30
2016,03,29,03,26,9.30
2016,03,29,03,27,9.30
2016,03,29,03,28,9.30
2016,03,29,03,29,9.30
2016,03,29,03,30,9.30
2016,03,29,03,31,9.30
2016,03,29,03,32,9.30
2016,03,29,03,33,9.30
2016,03,29,03,34,9.30
2016,03,29,03,35,9.30
2016,03,29,03,36,9.30
2016,03,29,03,37,9.30
2016,03,29,03,38,9.30
2016,03,29,03,39,9.30
2016,03,29,03,40,9.30
2016,03,29,03,41,9.30
2016,03,29,03,42,9.30
2016,03,29,03,43,9.30
2016,03,29,03,44,9.30
2016,03,29,03,45,9.30
2016,03,29,03,46,9.30
2016,03,29,03,47,9.30
2016,03,29,03,48,9.30
2016,03,29,03,49,9.30
2016,03,29,03,50,9.30
2016,03,29,03,51,9.20
2016,03,29,03,52,9.20
2016,03,29,03,53,9.20
2016,03,29,03,54,9.20
2016,03,29,03,55,9.20
2016,03,29,03,56,9.20
2016,03,29,03,57,9.20
2016,03,29,03,58,9.10
2016,03,29,03,59,9.10
2016,03,29,04,00,9.10
2016,03,29,04,01,9.10
2016,03,29,04,02,9.10
2016,03,29,04,03,9.10
2016,03,29,04,04,9.10
2016,03,29,04,05,9.10
2016,03,29,04,06,9.10
2016,03,29,04,07,9.10
2016,03,29,04,08,9.10
2016,03,29,04,09,9.10
2016,03,29,04,10,9.10
2016,03,29,04,11,9.10
2016,03,29,04,12,9.20
2016,03,29,04,13,9.20
2016,03,29,04,14,9.20
2016,03,29,04,15,9.20
2016,03,29,04,16,9.30
2016,03,29,04,17,9.30
2016,03,29,04,18,9.30
2016,03,29,04,19,9.30
2016,03,29,04,20,9.30
2016,03,29,04,21,9.30
2016,03,29,04,22,9.30
2016,03,29,04,23,9.40
2016,03,29,04,24,9.40
2016,03,29,04,25,9.40
2016,03,29,04,26,9.40
2016,03,29,04,27,9.40
2016,03,29,04,28,9.40
2016,03,29,04,29,9.40
2016,03,29,04,30,9.40
2016,03,29,04,31,9.40
2016,03,29,04,32,9.40
2016,03,29,04,33,9.40
2016,03,29,04,34,9.40
2016,03,29,04,35,9.40
2016,03,29,04,36,9.30
2016,03,29,04,37,9.30
2016,03,29,04,38,9.30
2016,03,29,04,39,9.30
2016,03,29,04,40,9.30
2016,03,29,04,41,9.30
2016,03,29,04,42,9.30
2016,03,29,04,43,9.30
2016,03,29,04,44,9.30
2016,03,29,04,45,9.30
2016,03,29,04,46,9.20
2016,03,29,04,47,9.20
2016,03,29,04,48,9.20
2016,03,29,04,49,9.10
2016,03,29,04,50,9.10
2016,03,29,04,51,9.10
2016,03,29,04,52,9.10
2016,03,29,04,53,9.10
2016,03,29,04,54,9.00
2016,03,29,04,55,9.00
2016,03,29,04,56,9.00
2016,03,29,04,57,9.00
2016,03,29,04,58,9.00
2016,03,29,04,59,8.90
2016,03,29,05,00,8.90
2016,03,29,05,01,8.90
2016,03,29,05,02,8.90
2016,03,29,05,03,8.90
2016,03,29,05,04,8.90
2016,03,29,05,05,8.90
2016,03,29,05,06,8.90
2016,03,29,05,07,8.90
2016,03,29,05,08,8.90
2016,03,29,05,09,8.90
2016,03,29,05,10,8.90
2016,03,29,05,11,8.90
2016,03,29,05,12,8.90
2016,03,29,05,13,8.90
2016,03,29,05,14,8.90
2016,03,29,05,15,8.90
2016,03,29,05,16,8.90
2016,03,29,05,17,9.00
2016,03,29,05,18,9.00
2016,03,29,05,19,9.00
2016,03,29,05,20,9.00
2016,03,29,05,21,9.00
2016,03,29,05,22,9.00
2016,03,29,05,23,9.00
2016,03,29,05,24,9.00
2016,03,29,05,25,8.90
2016,03,29,05,26,8.90
2016,03,29,05,27,8.90
2016,03,29,05,28,8.90
2016,03,29,05,29,8.90
2016,03,29,05,30,8.90
2016,03,29,05,31,8.90
2016,03,29,05,32,8.90
2016,03,29,05,33,8.80
2016,03,29,05,34,8.80
2016,03,29,05,35,8.80
2016,03,29,05,36,8.80
2016,03,29,05,37,8.80
2016,03,29,05,38,8.80
2016,03,29,05,39,8.80
2016,03,29,05,40,8.80
2016,03,29,05,41,8.80
2016,03,29,05,42,8.80
2016,03,29,05,43,8.80
2016,03,29,05,44,8.80
2016,03,29,05,45,8.80
2016,03,29,05,46,8.90
2016,03,29,05,47,8.90
2016,03,29,05,48,8.90
2016,03,29,05,49,8.90
2016,03,29,05,50,8.90
2016,03,29,05,51,9.00
2016,03,29,05,52,9.00
2016,03,29,05,53,9.00
2016,03,29,05,54,9.00
2016,03,29,05,55,9.10
2016,03,29,05,56,9.10
2016,03,29,05,57,9.10
2016,03,29,05,58,9.20
2016,03,29,05,59,9.20
2016,03,29,06,00,9.20
2016,03,29,06,01,9.20
2016,03,29,06,02,9.20
2016,03,29,06,03,9.20
2016,03,29,06,04,9.20
2016,03,29,06,05,9.10
2016,03,29,06,06,9.10
2016,03,29,06,07,9.10
2016,03,29,06,08,9.10
2016,03,29,06,09,9.10
2016,03,29,06,10,9.10
2016,03,29,06,11,9.10
2016,03,29,06,12,9.10
2016,03,29,06,13,9.10
2016,03,29,06,14,9.10
2016,03,29,06,15,9.10
2016,03,29,06,16,9.10
2016,03,29,06,17,9.10
2016,03,29,06,18,9.10
2016,03,29,06,19,9.10
2016,03,29,06,20,9.10
2016,03,29,06,21,9.10
2016,03,29,06,22,9.10
2016,03,29,06,23,9.10
2016,03,29,06,24,9.00
2016,03,29,06,25,9.00
2016,03,29,06,26,9.00
2016,03,29,06,27,9.00
2016,03,29,06,28,8.90
2016,03,29,06,29,8.90
2016,03,29,06,30,8.90
2016,03,29,06,31,8.90
2016,03,29,06,32,8.90
2016,03,29,06,33,8.80
2016,03,29,06,34,8.80
2016,03,29,06,35,8.80
2016,03,29,06,36,8.80
2016,03,29,06,37,8.80
2016,03,29,06,38,8.80
2016,03,29,06,39,8.80
2016,03,29,06,40,8.80
2016,03,29,06,41,8.80
2016,03,29,06,42,8.80
2016,03,29,06,43,8.80
2016,03,29,06,44,8.80
2016,03,29,06,45,8.80
2016,03,29,06,46,8.80
2016,03,29,06,47,8.80
2016,03,29,06,48,8.80
2016,03,29,06,49,8.80
2016,03,29,06,50,8.80
2016,03,29,06,51,8.70
2016,03,29,06,52,8.70
2016,03,29,06,53,8.70
2016,03,29,06,54,8.80
2016,03,29,06,55,8.80
2016,03,29,06,56,8.80
2016,03,29,06,57,8.80
2016,03,29,06,58,8.80
2016,03,29,06,59,8.80
2016,03,29,07,00,8.80
2016,03,29,07,01,8.80
2016,03,29,07,02,8.80
2016,03,29,07,03,8.80
2016,03,29,07,04,8.80
2016,03,29,07,05,8.80
2016,03,29,07,06,8.80
2016,03,29,07,07,8.80
2016,03,29,07,08,8.80
2016,03,29,07,09,8.80
2016,03,29,07,10,8.80
2016,03,29,07,11,8.80
2016,03,29,07,12,8.80
2016,03,29,07,13,8.70
2016,03,29,07,14,8.70
2016,03,29,07,15,8.70
2016,03,29,07,16,8.70
2016,03,29,07,17,8.80
2016,03,29,07,18,8.80
2016,03,29,07,19,8.80
2016,03,29,07,20,8.80
2016,03,29,07,21,8.80
2016,03,29,07,22,8.90
2016,03,29,07,23,8.90
2016,03,29,07,24,8.90
2016,03,29,07,25,8.90
2016,03,29,07,26,8.90
2016,03,29,07,27,8.90
2016,03,29,07,28,8.90
2016,03,29,07,29,9.00
2016,03,29,07,30,9.00
2016,03,29,07,31,9.00
2016,03,29,07,32,9.00
2016,03,29,07,33,9.00
2016,03,29,07,34,9.00
2016,03,29,07,35,9.00
2016,03,29,07,36,9.00
2016,03,29,07,37,9.00
2016,03,29,07,38,9.00
2016,03,29,07,39,9.00
2016,03,29,07,40,9.00
2016,03,29,07,41,9.00
2016,03,29,07,42,9.10
2016,03,29,07,43,9.10
2016,03,29,07,44,9.10
2016,03,29,07,45,9.10
2016,03,29,07,46,9.10
2016,03,29,07,47,9.10
2016,03,29,07,48,9.10
2016,03,29,07,49,9.10
2016,03,29,07,50,9.10
2016,03,29,07,51,9.20
2016,03,29,07,52,9.20
2016,03,29,07,53,9.20
2016,03,29,07,54,9.20
2016,03,29,07,55,9.20
2016,03,29,07,56,9.20
2016,03,29,07,57,9.20
2016,03,29,07,58,9.20
2016,03,29,07,59,9.20
2016,03,29,08,00,9.20
2016,03,29,08,01,9.20
2016,03,29,08,02,9.20
2016,03,29,08,03,9.20
2016,03,29,08,04,9.20
2016,03,29,08,05,9.20
2016,03,29,08,06,9.20
2016,03,29,08,07,9.30
2016,03,29,08,08,9.30
2016,03,29,08,09,9.30
2016,03,29,08,10,9.30
2016,03,29,08,11,9.30
2016,03,29,08,12,9.30
2016,03,29,08,13,9.40
2016,03,29,08,14,9.40
2016,03,29,08,15,9.40
2016,03,29,08,16,9.40
2016,03,29,08,17,9.40
2016,03,29,08,18,9.50
2016,03,29,08,19,9.50
2016,03,29,08,20,9.50
2016,03,29,08,21,9.50
2016,03,29,08,22,9.60
2016,03,29,08,23,9.60
2016,03,29,08,24,9.60
2016,03,29,08,25,9.60
2016,03,29,08,26,9.70
2016,03,29,08,27,9.70
2016,03,29,08,28,9.70
2016,03,29,08,29,9.70
2016,03,29,08,30,9.70
2016,03,29,08,31,9.70
2016,03,29,08,32,9.80
2016,03,29,08,33,9.80
2016,03,29,08,34,9.80
2016,03,29,08,35,9.80
2016,03,29,08,36,9.80
2016,03,29,08,37,9.90
2016,03,29,08,38,9.90
2016,03,29,08,39,9.90
2016,03,29,08,40,10.00
2016,03,29,08,41,10.00
2016,03,29,08,42,10.10
2016,03,29,08,43,10.10
2016,03,29,08,44,10.10
2016,03,29,08,45,10.10
2016,03,29,08,46,10.20
2016,03,29,08,47,10.20
2016,03,29,08,48,10.20
2016,03,29,08,49,10.20
2016,03,29,08,50,10.30
2016,03,29,08,51,10.30
2016,03,29,08,52,10.30
2016,03,29,08,53,10.30
2016,03,29,08,54,10.30
2016,03,29,08,55,10.30
2016,03,29,08,56,10.30
2016,03,29,08,57,10.40
2016,03,29,08,58,10.40
2016,03,29,08,59,10.40
2016,03,29,09,00,10.40
2016,03,29,09,01,10.50
2016,03,29,09,02,10.50
2016,03,29,09,03,10.50
2016,03,29,09,04,10.50
2016,03,29,09,05,10.50
2016,03,29,09,06,10.60
2016,03,29,09,07,10.60
2016,03,29,09,08,10.60
2016,03,29,09,09,10.60
2016,03,29,09,10,10.70
2016,03,29,09,11,10.70
2016,03,29,09,12,10.70
2016,03,29,09,13,10.80
2016,03,29,09,14,10.80
2016,03,29,09,15,10.80
2016,03,29,09,16,10.90
2016,03,29,09,17,10.90
2016,03,29,09,18,10.90
2016,03,29,09,19,10.90
2016,03,29,09,20,10.90
2016,03,29,09,21,11.00
2016,03,29,09,22,11.10
2016,03,29,09,23,11.10
2016,03,29,09,24,11.10
2016,03,29,09,25,11.20
2016,03,29,09,26,11.20
2016,03,29,09,27,11.20
2016,03,29,09,28,11.20
2016,03,29,09,29,11.30
2016,03,29,09,30,11.30
2016,03,29,09,31,11.30
2016,03,29,09,32,11.30
2016,03,29,09,33,11.30
2016,03,29,09,34,11.30
2016,03,29,09,35,11.30
2016,03,29,09,36,11.30
2016,03,29,09,37,11.30
2016,03,29,09,38,11.30
2016,03,29,09,39,11.30
2016,03,29,09,40,11.30
2016,03,29,09,41,11.30
2016,03,29,09,42,11.30
2016,03,29,09,43,11.30
2016,03,29,09,44,11.30
2016,03,29,09,45,11.40
2016,03,29,09,46,11.40
2016,03,29,09,47,11.40
2016,03,29,09,48,11.50
2016,03,29,09,49,11.60
2016,03,29,09,50,11.70
2016,03,29,09,51,11.70
2016,03,29,09,52,11.70
2016,03,29,09,53,11.80
2016,03,29,09,54,11.80
2016,03,29,09,55,11.80
2016,03,29,09,56,11.80
2016,03,29,09,57,11.80
2016,03,29,09,58,11.80
2016,03,29,09,59,11.80
2016,03,29,10,00,11.90
2016,03,29,10,01,11.90
2016,03,29,10,02,12.00
2016,03,29,10,03,12.00
2016,03,29,10,04,12.10
2016,03,29,10,05,12.20
2016,03,29,10,06,12.30
2016,03,29,10,07,12.30
2016,03,29,10,08,12.30
2016,03,29,10,09,12.30
2016,03,29,10,10,12.30
2016,03,29,10,11,12.30
2016,03,29,10,12,12.40
2016,03,29,10,13,12.40
2016,03,29,10,14,12.40
2016,03,29,10,15,12.40
2016,03,29,10,16,12.50
2016,03,29,10,17,12.50
2016,03,29,10,18,12.50
2016,03,29,10,19,12.60
2016,03,29,10,20,12.60
2016,03,29,10,21,12.60
2016,03,29,10,22,12.60
2016,03,29,10,23,12.60
2016,03,29,10,24,12.60
2016,03,29,10,25,12.70
2016,03,29,10,26,12.70
2016,03,29,10,27,12.60
2016,03,29,10,28,12.60
2016,03,29,10,29,12.50
2016,03,29,10,30,12.50
2016,03,29,10,31,12.50
2016,03,29,10,32,12.40
2016,03,29,10,33,12.40
2016,03,29,10,34,12.40
2016,03,29,10,35,12.40
2016,03,29,10,36,12.40
2016,03,29,10,37,12.40
2016,03,29,10,38,12.50
2016,03,29,10,39,12.50
2016,03,29,10,40,12.50
2016,03,29,10,41,12.50
2016,03,29,10,42,12.40
2016,03,29,10,43,12.40
2016,03,29,10,44,12.50
2016,03,29,10,45,12.50
2016,03,29,10,46,12.50
2016,03,29,10,47,12.50
2016,03,29,10,48,12.50
2016,03,29,10,49,12.60
2016,03,29,10,50,12.60
2016,03,29,10,51,12.60
2016,03,29,10,52,12.60
2016,03,29,10,53,12.60
2016,03,29,10,54,12.60
2016,03,29,10,55,12.60
2016,03,29,10,56,12.60
2016,03,29,10,57,12.60
2016,03,29,10,58,12.50
2016,03,29,10,59,12.50
2016,03,29,11,00,12.50
2016,03,29,11,01,12.50
2016,03,29,11,02,12.50
2016,03,29,11,03,12.60
2016,03,29,11,04,12.60
2016,03,29,11,05,12.70
2016,03,29,11,06,12.70
2016,03,29,11,07,12.80
2016,03,29,11,08,12.80
2016,03,29,11,09,12.90
2016,03,29,11,10,12.90
2016,03,29,11,11,12.90
2016,03,29,11,12,13.00
2016,03,29,11,13,13.00
2016,03,29,11,14,13.10
2016,03,29,11,15,13.10
2016,03,29,11,16,13.10
2016,03,29,11,17,13.10
2016,03,29,11,18,13.10
2016,03,29,11,19,13.20
2016,03,29,11,20,13.10
2016,03,29,11,21,13.10
2016,03,29,11,22,13.10
2016,03,29,11,23,13.10
2016,03,29,11,24,13.10
2016,03,29,11,25,13.10
2016,03,29,11,26,13.10
2016,03,29,11,27,13.10
2016,03,29,11,28,13.10
2016,03,29,11,29,13.20
2016,03,29,11,30,13.20
2016,03,29,11,31,13.30
2016,03,29,11,32,13.30
2016,03,29,11,33,13.30
2016,03,29,11,34,13.40
2016,03,29,11,35,13.40
2016,03,29,11,36,13.50
2016,03,29,11,37,13.60
2016,03,29,11,38,13.70
2016,03,29,11,39,13.70
2016,03,29,11,40,13.80
2016,03,29,11,41,13.80
2016,03,29,11,42,13.90
2016,03,29,11,43,13.90
2016,03,29,11,44,13.90
2016,03,29,11,45,13.80
2016,03,29,11,46,13.70
2016,03,29,11,47,13.70
2016,03,29,11,48,13.70
2016,03,29,11,49,13.70
2016,03,29,11,50,13.70
2016,03,29,11,51,13.60
2016,03,29,11,52,13.60
2016,03,29,11,53,13.50
2016,03,29,11,54,13.60
2016,03,29,11,55,13.60
2016,03,29,11,56,13.60
2016,03,29,11,57,13.70
2016,03,29,11,58,13.80
2016,03,29,11,59,13.90
2016,03,29,12,00,14.00
2016,03,29,12,01,14.00
2016,03,29,12,02,14.10
2016,03,29,12,03,14.10
2016,03,29,12,04,14.00
2016,03,29,12,05,14.00
2016,03,29,12,06,13.90
2016,03,29,12,07,13.90
2016,03,29,12,08,13.90
2016,03,29,12,09,13.90
2016,03,29,12,10,14.00
2016,03,29,12,11,14.00
2016,03,29,12,12,14.10
2016,03,29,12,13,14.20
2016,03,29,12,14,14.20
2016,03,29,12,15,14.30
2016,03,29,12,16,14.30
2016,03,29,12,17,14.30
2016,03,29,12,18,14.30
2016,03,29,12,19,14.30
2016,03,29,12,20,14.30
2016,03,29,12,21,14.20
2016,03,29,12,22,14.20
2016,03,29,12,23,14.20
2016,03,29,12,24,14.20
2016,03,29,12,25,14.20
2016,03,29,12,26,14.20
2016,03,29,12,27,14.20
2016,03,29,12,28,14.20
2016,03,29,12,29,14.20
2016,03,29,12,30,14.20
2016,03,29,12,31,14.20
2016,03,29,12,32,14.20
2016,03,29,12,33,14.10
2016,03,29,12,34,14.10
2016,03,29,12,35,14.00
2016,03,29,12,36,14.00
2016,03,29,12,37,14.00
2016,03,29,12,38,14.00
2016,03,29,12,39,14.10
2016,03,29,12,40,14.10
2016,03,29,12,41,14.10
2016,03,29,12,42,14.10
2016,03,29,12,43,14.10
2016,03,29,12,44,14.10
2016,03,29,12,45,14.10
2016,03,29,12,46,14.10
2016,03,29,12,47,14.10
2016,03,29,12,48,14.20
2016,03,29,12,49,14.20
2016,03,29,12,50,14.30
2016,03,29,12,51,14.30
2016,03,29,12,52,14.30
2016,03,29,12,53,14.30
2016,03,29,12,54,14.30
2016,03,29,12,55,14.30
2016,03,29,12,56,14.30
2016,03,29,12,57,14.30
2016,03,29,12,58,14.30
2016,03,29,12,59,14.30
2016,03,29,13,00,14.30
2016,03,29,13,01,14.30
2016,03,29,13,02,14.30
2016,03,29,13,03,14.40
2016,03,29,13,04,14.40
2016,03,29,13,05,14.50
2016,03,29,13,06,14.60
2016,03,29,13,07,14.70
2016,03,29,13,08,14.70
2016,03,29,13,09,14.80
2016,03,29,13,10,14.80
2016,03,29,13,11,14.80
2016,03,29,13,12,14.80
2016,03,29,13,13,14.80
2016,03,29,13,14,14.80
2016,03,29,13,15,14.80
2016,03,29,13,16,14.80
2016,03,29,13,17,14.90
2016,03,29,13,18,15.00
2016,03,29,13,19,15.00
2016,03,29,13,20,15.10
2016,03,29,13,21,15.10
2016,03,29,13,22,15.20
2016,03,29,13,23,15.20
2016,03,29,13,24,15.20
2016,03,29,13,25,15.20
2016,03,29,13,26,15.20
2016,03,29,13,27,15.20
2016,03,29,13,28,15.30
2016,03,29,13,29,15.30
2016,03,29,13,30,15.20
2016,03,29,13,31,15.20
2016,03,29,13,32,15.20
2016,03,29,13,33,15.20
2016,03,29,13,34,15.30
2016,03,29,13,35,15.30
2016,03,29,13,36,15.30
2016,03,29,13,37,15.40
2016,03,29,13,38,15.40
2016,03,29,13,39,15.40
2016,03,29,13,40,15.40
2016,03,29,13,41,15.40
2016,03,29,13,42,15.40
2016,03,29,13,43,15.40
2016,03,29,13,44,15.40
2016,03,29,13,45,15.40
2016,03,29,13,46,15.40
2016,03,29,13,47,15.30
2016,03,29,13,48,15.30
2016,03,29,13,49,15.30
2016,03,29,13,50,15.20
2016,03,29,13,51,15.20
2016,03,29,13,52,15.20
2016,03,29,13,53,15.30
2016,03,29,13,54,15.30
2016,03,29,13,55,15.30
2016,03,29,13,56,15.40
2016,03,29,13,57,15.50
2016,03,29,13,58,15.60
2016,03,29,13,59,15.60
2016,03,29,14,00,15.60
2016,03,29,14,01,15.70
2016,03,29,14,02,15.70
2016,03,29,14,03,15.70
2016,03,29,14,04,15.80
2016,03,29,14,05,15.80
2016,03,29,14,06,15.80
2016,03,29,14,07,15.70
2016,03,29,14,08,15.60
2016,03,29,14,09,15.50
2016,03,29,14,10,15.40
2016,03,29,14,11,15.40
2016,03,29,14,12,15.40
2016,03,29,14,13,15.40
2016,03,29,14,14,15.40
2016,03,29,14,15,15.40
2016,03,29,14,16,15.40
2016,03,29,14,17,15.40
2016,03,29,14,18,15.50
2016,03,29,14,19,15.50
2016,03,29,14,20,15.50
2016,03,29,14,21,15.60
2016,03,29,14,22,15.60
2016,03,29,14,23,15.60
2016,03,29,14,24,15.70
2016,03,29,14,25,15.70
2016,03,29,14,26,15.70
2016,03,29,14,27,15.80
2016,03,29,14,28,15.80
2016,03,29,14,29,15.80
2016,03,29,14,30,15.80
2016,03,29,14,31,15.80
2016,03,29,14,32,15.80
2016,03,29,14,33,15.70
2016,03,29,14,34,15.60
2016,03,29,14,35,15.50
2016,03,29,14,36,15.50
2016,03,29,14,37,15.40
2016,03,29,14,38,15.50
2016,03,29,14,39,15.50
2016,03,29,14,40,15.50
2016,03,29,14,41,15.40
2016,03,29,14,42,15.40
2016,03,29,14,43,15.40
2016,03,29,14,44,15.40
2016,03,29,14,45,15.40
2016,03,29,14,46,15.40
2016,03,29,14,47,15.40
2016,03,29,14,48,15.50
2016,03,29,14,49,15.50
2016,03,29,14,50,15.60
2016,03,29,14,51,15.60
2016,03,29,14,52,15.70
2016,03,29,14,53,15.70
2016,03,29,14,54,15.70
2016,03,29,14,55,15.80
2016,03,29,14,56,15.90
2016,03,29,14,57,15.90
2016,03,29,14,58,16.00
2016,03,29,14,59,16.00
2016,03,29,15,00,16.00
2016,03,29,15,01,16.00
2016,03,29,15,02,16.00
2016,03,29,15,03,16.00
2016,03,29,15,04,16.00
2016,03,29,15,05,16.00
2016,03,29,15,06,16.00
2016,03,29,15,07,16.10
2016,03,29,15,08,16.20
2016,03,29,15,09,16.30
2016,03,29,15,10,16.30
2016,03,29,15,11,16.30
2016,03,29,15,12,16.30
2016,03,29,15,13,16.30
2016,03,29,15,14,16.20
2016,03,29,15,15,16.30
2016,03,29,15,16,16.30
2016,03,29,15,17,16.30
2016,03,29,15,18,16.30
2016,03,29,15,19,16.30
2016,03,29,15,20,16.30
2016,03,29,15,21,16.30
2016,03,29,15,22,16.30
2016,03,29,15,23,16.30
2016,03,29,15,24,16.40
2016,03,29,15,25,16.40
2016,03,29,15,26,16.50
2016,03,29,15,27,16.50
2016,03,29,15,28,16.60
2016,03,29,15,29,16.70
2016,03,29,15,30,16.70
2016,03,29,15,31,16.80
2016,03,29,15,32,16.80
2016,03,29,15,33,16.90
2016,03,29,15,34,16.90
2016,03,29,15,35,17.00
2016,03,29,15,36,17.00
2016,03,29,15,37,17.00
2016,03,29,15,38,17.00
2016,03,29,15,39,17.00
2016,03,29,15,40,16.90
2016,03,29,15,41,16.90
2016,03,29,15,42,16.90
2016,03,29,15,43,16.80
2016,03,29,15,44,16.80
2016,03,29,15,45,16.60
2016,03,29,15,46,16.50
2016,03,29,15,47,16.50
2016,03,29,15,48,16.40
2016,03,29,15,49,16.50
2016,03,29,15,50,16.40
2016,03,29,15,51,16.40
2016,03,29,15,52,16.40
2016,03,29,15,53,16.40
2016,03,29,15,54,16.40
2016,03,29,15,55,16.30
2016,03,29,15,56,16.30
2016,03,29,15,57,16.30
2016,03,29,15,58,16.30
2016,03,29,15,59,16.20
2016,03,29,16,00,16.10
2016,03,29,16,01,16.10
2016,03,29,16,02,16.10
2016,03,29,16,03,16.00
2016,03,29,16,04,16.00
2016,03,29,16,05,16.10
2016,03,29,16,06,16.10
2016,03,29,16,07,16.10
2016,03,29,16,08,16.20
2016,03,29,16,09,16.20
2016,03,29,16,10,16.20
2016,03,29,16,11,16.30
2016,03,29,16,12,16.30
2016,03,29,16,13,16.40
2016,03,29,16,14,16.50
2016,03,29,16,15,16.60
2016,03,29,16,16,16.60
2016,03,29,16,17,16.60
2016,03,29,16,18,16.50
2016,03,29,16,19,16.50
2016,03,29,16,20,16.40
2016,03,29,16,21,16.40
2016,03,29,16,22,16.30
2016,03,29,16,23,16.30
2016,03,29,16,24,16.30
2016,03,29,16,25,16.20
2016,03,29,16,26,16.20
2016,03,29,16,27,16.30
2016,03,29,16,28,16.30
2016,03,29,16,29,16.30
2016,03,29,16,30,16.30
2016,03,29,16,31,16.30
2016,03,29,16,32,16.30
2016,03,29,16,33,16.30
2016,03,29,16,34,16.30
2016,03,29,16,35,16.30
2016,03,29,16,36,16.30
2016,03,29,16,37,16.30
2016,03,29,16,38,16.40
2016,03,29,16,39,16.40
2016,03,29,16,40,16.40
2016,03,29,16,41,16.40
2016,03,29,16,42,16.40
2016,03,29,16,43,16.40
2016,03,29,16,44,16.40
2016,03,29,16,45,16.40
2016,03,29,16,46,16.30
2016,03,29,16,47,16.30
2016,03,29,16,48,16.30
2016,03,29,16,49,16.30
2016,03,29,16,50,16.40
2016,03,29,16,51,16.40
2016,03,29,16,52,16.40
2016,03,29,16,53,16.40
2016,03,29,16,54,16.50
2016,03,29,16,55,16.50
2016,03,29,16,56,16.50
2016,03,29,16,57,16.50
2016,03,29,16,58,16.50
2016,03,29,16,59,16.50
2016,03,29,17,00,16.50
2016,03,29,17,01,16.50
2016,03,29,17,02,16.60
2016,03,29,17,03,16.60
2016,03,29,17,04,16.70
2016,03,29,17,05,16.70
2016,03,29,17,06,16.80
2016,03,29,17,07,16.80
2016,03,29,17,08,16.90
2016,03,29,17,09,16.90
2016,03,29,17,10,16.90
2016,03,29,17,11,16.90
2016,03,29,17,12,16.90
2016,03,29,17,13,17.00
2016,03,29,17,14,17.00
2016,03,29,17,15,17.00
2016,03,29,17,16,17.00
2016,03,29,17,17,17.00
2016,03,29,17,18,17.00
2016,03,29,17,19,17.10
2016,03,29,17,20,17.10
2016,03,29,17,21,17.10
2016,03,29,17,22,17.20
2016,03,29,17,23,17.20
2016,03,29,17,24,17.20
2016,03,29,17,25,17.20
2016,03,29,17,26,17.20
2016,03,29,17,27,17.20
2016,03,29,17,28,17.20
2016,03,29,17,29,17.20
2016,03,29,17,30,17.20
2016,03,29,17,31,17.10
2016,03,29,17,32,17.10
2016,03,29,17,33,17.10
2016,03,29,17,34,17.20
2016,03,29,17,35,17.20
2016,03,29,17,36,17.10
2016,03,29,17,37,17.10
2016,03,29,17,38,17.00